Temperature
23 23 23 23 24 24 24 24 23 24 24 25 26 26 26 25 25 24 23 22 21 20 20 19 19 19 18 18 18 18 18 17 17 17 17 16 16 16 15 15 15 14 14 14
23 23 24 24 24 24 24 24 24 25 25 27 27 26 26 25 25 23 23 22 21 20 20 19 19 19 19 18 18 18 18 17 17 17 17 16 16 16 15 15 15 14 14 14
22 23 23 23 24 24 25 25 25 24 25 27 26 26 26 25 24 24 23 22 21 21 20 19 19 19 19 18 18 18 17 17 17 17 16 16 16 15 15 15 15 14 14 14
22 22 21 24 26 25 25 25 26 26 26 27 26 26 26 25 24 24 23 22 22 21 20 20 20 19 19 18 18 18 17 17 17 17 16 16 16 15 15 14 14 14 14 13
22 21 23 24 25 25 25 25 26 26 26 27 27 26 25 25 24 23 23 22 22 21 21 20 20 19 18 18 18 17 17 17 17 16 16 16 16 15 15 14 14 14 13 13
22 21 21 24 26 26 26 24 26 26 26 26 26 24 24 25 24 23 23 22 22 21 21 20 20 19 18 18 18 17 17 17 17 16 16 16 15 15 14 14 14 13 13 13
22 22 23 25 25 26 24 24 25 26 26 26 25 24 24 24 23 23 22 22 21 21 20 20 19 19 18 18 17 17 17 17 16 16 16 16 15 15 14 14 13 13 13 13
23 22 22 25 25 25 24 25 25 25 25 24 24 24 23 23 22 22 22 21 21 20 20 20 19 19 18 18 17 17 17 17 16 16 16 15 15 14 14 14 13 13 12 12
24 23 24 24 24 24 24 24 24 24 24 23 23 23 23 22 22 21 21 21 20 20 20 19 19 18 18 18 17 17 17 16 16 16 15 15 15 14 14 13 13 13 12 12
24 24 24 24 24 23 23 23 23 23 23 22 22 22 22 21 21 20 20 20 20 19 19 19 18 18 18 17 17 17 17 16 16 15 15 15 14 14 14 13 13 12 12 12
24 24 24 23 23 23 22 22 22 22 22 22 22 21 21 21 20 20 19 19 19 19 18 18 18 17 17 17 17 16 16 16 15 15 15 14 14 14 14 13 13 13 12 12
22 23 23 22 22 22 22 21 21 21 21 21 21 21 21 20 20 19 19 19 19 18 18 18 17 17 17 16 16 16 16 15 15 14 14 14 14 13 13 13 12 12 12 12
22 22 21 21 21 21 21 21 20 20 20 20 20 20 20 19 19 19 18 18 18 18 18 17 17 16 16 16 16 16 16 15 15 14 14 14 13 13 13 12 12 12 12 11
20 20 20 20 19 19 20 20 20 19 19 19 19 19 19 19 18 18 18 18 18 17 17 17 16 16 16 15 15 15 15 15 15 14 14 14 13 13 12 12 12 12 12 11
19 19 19 19 18 18 18 18 18 18 18 18 18 18 18 18 18 18 17 17 17 17 16 16 16 16 15 15 15 14 14 14 14 14 13 13 13 12 12 12 12 11 11 11
18 18 18 18 18 18 17 17 17 18 18 17 17 17 17 17 17 17 17 17 16 16 16 16 16 15 15 15 14 14 14 14 14 13 13 13 12 12 12 11 11 11 11 11
17 17 17 17 17 17 17 17 17 17 17 17 17 17 17 17 16 16 16 16 16 16 15 15 15 15 14 14 14 13 13 13 13 13 13 12 12 12 11 11 11 11 11 10
16 16 16 16 16 16 16 16 16 16 16 16 16 16 16 16 16 16 15 15 15 15 15 15 14 14 14 13 13 13 13 13 12 12 12 12 11 11 11 11 10 10 10 10
15 14 15 15 15 15 15 14 14 15 15 14 14 15 15 15 15 15 15 14 14 14 14 14 14 13 13 13 13 12 12 12 12 12 11 11 11 10 10 10 10 10 9 9
13 13 13 13 13 13 13 13 13 13 13 13 13 13 14 14 14 14 14 14 14 14 13 13 13 13 12 12 12 12 11 11 11 11 11 10 10 10 10 9 9 9 9 9
12 12 12 12 12 12 12 12 12 12 12 12 12 12 12 12 13 13 13 13 13 13 13 12 12 12 12 11 11 11 11 10 10 10 10 10 10 9 9 9 9 9 8 8
11 11 11 11 11 11 11 11 11 11 11 11 11 11 11 12 12 12 12 12 12 12 12 12 11 11 11 11 10 10 10 10 10 9 9 9 9 9 9 8 8 8 8 8
10 10 10 10 10 10 10 10 10 10 10 10 10 10 10 10 11 11 11 11 11 11 11 11 11 10 10 10 10 9 9 9 9 9 9 9 8 8 8 8 8 8 7 7
9 9 9 9 9 9 9 9 9 9 9 9 9 9 10 10 10 10 10 10 10 10 10 10 10 10 9 9 9 9 9 8 8 8 8 8 8 8 7 7 7 7 7 6
8 8 9 9 9 8 8 8 9 9 9 9 9 9 9 9 9 9 9 9 9 9 9 9 9 9 9 8 8 8 8 8 8 7 7 7 7 7 7 7 6 6 6 6
8 8 8 7 8 8 8 8 8 8 8 8 8 8 8 8 8 8 8 8 8 8 8 8 8 8 8 8 7 7 7 7 7 7 7 6 6 6 6 6 6 6 5 5
7 7 7 7 7 7 7 7 7 7 7 7 7 7 7 7 7 7 7 7 7 7 7 7 7 7 7 7 7 6 6 6 6 6 6 6 6 6 6 5 5 5 5 4
Wind_Speed
6 6 7 9 10 12 12 11 8 7 6 5 5 6 8 10 11 12 12 13 14 13 12 12 11 11 10 9 9 9 8 7 6 6 6 5 5 4 3 3 3 3 4 4
8 8 9 8 10 11 11 11 10 10 8 4 5 5 7 9 11 12 13 13 13 14 13 13 13 12 11 10 10 10 9 8 7 7 7 6 5 4 3 3 3 4 4 5
6 6 6 8 10 11 11 10 10 9 7 3 4 6 7 8 9 11 12 12 13 13 13 13 13 13 12 12 10 10 10 8 8 7 7 6 6 5 4 3 3 3 3 4
5 5 7 5 4 6 7 8 8 7 5 4 4 5 6 6 9 10 11 12 12 12 12 12 12 11 11 11 11 10 10 9 9 8 8 6 6 5 4 3 3 2 2 3
4 6 7 6 4 5 5 6 6 6 5 5 4 3 4 6 9 10 10 10 10 11 11 11 12 12 12 12 11 10 10 10 10 9 8 7 6 5 4 3 3 3 2 2
5 5 4 2 1 1 3 3 4 4 3 3 4 4 3 4 8 8 8 8 9 9 10 11 11 12 13 12 11 11 10 10 10 9 9 8 7 5 4 3 3 3 3 2
8 7 5 2 1 1 2 1 4 4 2 1 2 3 4 5 7 7 7 8 8 9 9 10 11 12 12 12 11 10 10 10 9 9 9 8 6 5 5 4 4 3 3 2
7 7 4 1 0 0 3 5 5 6 6 5 5 5 5 5 5 6 7 8 8 8 8 8 11 12 11 10 10 10 10 10 9 9 9 8 7 6 5 5 5 4 3 3
3 2 3 3 2 4 5 5 6 5 5 4 3 3 3 4 5 6 7 7 7 7 7 7 9 10 11 10 11 12 11 10 9 9 8 8 7 6 5 5 5 4 4 3
3 2 3 2 2 3 3 4 4 4 4 2 1 1 2 4 4 5 5 6 6 7 8 7 8 8 8 9 11 12 12 10 9 9 8 8 7 6 5 5 5 4 4 4
5 2 1 1 3 4 4 3 3 3 2 2 0 1 1 3 4 5 6 6 6 7 7 7 8 8 8 10 11 11 11 10 9 8 8 7 7 6 6 5 6 6 4 4
2 2 3 2 3 3 3 4 3 3 3 2 0 1 1 2 4 5 6 6 6 6 6 8 8 8 9 10 10 11 10 10 8 7 7 7 6 5 5 6 8 9 7 6
3 4 4 5 5 5 4 4 4 2 2 2 1 1 1 2 3 4 5 6 6 7 7 7 8 8 9 10 10 10 10 9 7 7 7 7 7 7 5 4 5 7 9 9
2 2 2 3 3 4 3 4 4 3 2 2 1 1 1 2 2 4 5 5 5 6 7 7 7 8 8 9 9 10 9 10 9 7 7 7 7 7 6 6 5 5 7 11
3 2 1 2 2 3 3 3 3 2 2 2 1 1 0 1 2 3 3 4 5 5 6 7 7 7 8 8 9 9 8 7 7 6 6 6 6 6 6 7 6 5 4 6
3 2 1 1 2 2 2 3 3 3 2 2 2 1 1 1 1 2 3 4 5 6 6 7 6 6 7 8 8 7 6 9 8 6 6 6 6 6 6 6 6 6 6 6
2 2 2 2 2 2 3 3 3 3 2 2 2 2 1 0 1 2 3 3 4 4 4 5 5 5 6 7 7 6 5 7 9 7 6 6 6 6 6 6 6 6 6 7
3 3 3 3 3 3 3 3 3 3 3 3 2 2 1 2 2 2 2 3 3 3 3 3 4 5 6 6 6 5 5 5 6 6 6 5 5 5 5 6 6 6 4 5
3 4 4 5 4 3 3 3 3 3 3 3 2 2 2 2 2 1 1 2 3 3 3 3 5 6 6 6 6 4 5 5 5 5 5 6 6 6 5 5 5 5 5 4
3 4 4 4 4 4 3 3 4 4 4 3 3 2 2 2 2 2 1 1 2 2 2 3 4 4 5 5 6 5 5 6 6 6 5 6 6 6 5 6 6 6 5 5
3 3 3 3 3 3 3 3 3 3 4 3 3 2 3 3 2 2 1 2 1 1 2 3 3 3 3 4 6 5 5 6 6 6 6 6 6 6 6 6 5 5 5 4
2 2 3 3 3 3 3 3 3 3 3 3 3 3 3 3 3 3 2 1 1 1 1 2 2 3 3 4 4 5 5 6 5 5 5 5 6 6 6 6 5 5 5 4
2 2 2 3 3 3 3 3 4 4 3 3 4 3 3 3 3 2 2 1 0 1 2 2 3 4 4 4 4 5 5 5 5 5 5 5 5 5 5 5 5 5 4 4
2 2 2 3 3 3 3 3 4 3 3 3 3 3 3 3 3 3 2 2 1 2 2 3 5 5 6 5 4 5 5 5 4 4 4 4 4 5 5 5 5 4 4 5
2 2 2 3 3 3 3 3 4 3 3 3 3 4 3 2 2 3 3 3 2 2 2 3 5 6 6 5 4 4 4 4 4 4 4 4 4 4 4 4 4 4 4 4
2 2 2 2 2 2 3 3 3 2 2 2 3 3 3 3 3 2 2 3 4 3 2 2 3 4 4 3 3 3 3 4 4 4 4 4 4 4 4 4 5 4 4 4
2 2 2 2 2 2 2 3 3 3 3 3 3 3 4 3 3 3 3 3 3 3 2 2 2 2 3 3 3 3 3 3 3 3 3 3 3 3 3 4 3 3 2 2
Wind_Direction
249 244 240 226 225 225 231 243 251 252 246 215 179 176 166 165 164 164 167 167 166 169 168 168 170 169 164 158 157 159 158 162 163 146 135 125 117 114 96 86 87 82 78 73
264 258 247 242 238 231 232 239 253 256 252 222 188 179 171 173 170 172 171 175 172 173 171 175 176 173 165 163 164 163 165 164 148 139 133 133 134 131 114 94 79 71 72 76
272 263 251 245 239 235 233 232 240 251 251 224 190 182 183 176 174 178 174 177 176 178 176 180 181 175 167 167 165 167 163 153 146 145 142 143 141 126 124 120 100 90 88 90
266 270 254 257 230 225 237 244 245 252 250 232 210 184 179 173 174 177 176 178 177 179 176 178 176 167 163 163 167 166 160 153 152 149 146 144 139 144 153 142 128 127 120 118
257 263 263 259 228 208 225 251 254 253 253 234 206 172 187 185 176 178 178 176 176 178 173 174 171 165 163 167 168 165 162 159 158 155 153 151 153 159 158 145 144 151 157 152
251 259 265 291 347 225 235 265 301 273 255 220 183 190 188 170 161 163 164 164 167 168 168 171 167 161 164 169 169 168 163 160 158 155 154 158 161 159 151 148 154 162 166 174
247 252 259 299 18 236 208 340 350 359 11 360 123 112 110 117 138 147 149 151 154 160 166 167 161 160 168 172 173 163 155 153 153 152 156 157 157 156 156 159 165 179 179 188
234 241 249 80 189 27 32 23 25 28 28 41 57 63 83 105 124 140 143 145 152 158 160 159 159 163 171 171 161 150 149 150 153 155 162 162 157 165 170 167 174 189 195 205
225 187 100 98 56 40 24 13 20 28 32 40 51 58 77 110 126 138 144 151 154 156 157 158 162 167 172 162 150 150 151 155 158 160 162 159 163 172 175 177 184 197 198 201
236 184 121 111 57 37 27 15 15 13 14 16 20 46 110 125 133 141 148 154 157 159 164 168 168 168 164 153 152 154 159 164 166 168 169 170 173 179 181 188 193 197 201 205
260 277 21 35 45 31 20 8 0 2 352 335 305 149 145 147 150 157 160 162 165 171 174 174 169 168 160 157 158 163 167 171 174 175 174 176 178 184 190 194 191 192 202 201
277 319 315 6 33 28 19 8 3 2 358 350 51 123 138 142 141 148 157 161 169 174 175 177 176 175 167 164 167 171 175 178 179 176 175 176 176 184 194 192 188 191 194 197
322 346 12 27 29 21 13 358 360 4 5 1 18 82 122 126 133 144 158 172 177 178 179 180 176 176 173 171 177 182 182 179 177 179 181 183 183 186 193 211 215 211 208 207
7 29 20 10 359 358 353 351 354 354 355 5 13 24 86 131 152 163 175 181 177 173 177 182 181 182 178 176 181 187 185 183 180 183 184 187 190 193 194 195 207 225 226 221
330 337 334 355 358 353 348 344 333 328 332 345 6 17 110 173 186 182 170 166 168 175 183 185 187 184 174 176 183 189 187 183 181 181 185 191 193 196 202 206 210 210 207 217
293 310 310 302 298 306 313 313 308 306 318 328 325 313 283 200 184 174 167 166 181 192 191 187 190 181 171 176 184 190 190 184 181 185 189 195 196 200 205 209 212 213 211 212
281 283 285 279 282 295 303 306 306 310 312 316 324 326 312 247 192 188 184 180 190 195 183 180 178 171 174 180 185 188 187 187 186 191 197 201 202 205 208 212 217 220 219 209
341 332 324 322 320 315 309 313 318 324 331 335 337 325 289 251 233 211 194 182 177 177 180 182 177 179 180 181 187 188 190 193 196 199 201 204 205 209 212 216 219 225 225 217
2 350 351 348 346 340 339 342 343 341 341 337 326 314 310 298 284 251 186 179 188 197 197 181 188 186 178 181 185 185 193 199 204 206 205 207 211 214 214 216 221 222 221 217
6 0 355 354 356 353 348 347 349 344 344 341 333 332 331 325 320 304 253 221 212 206 185 174 187 192 186 184 184 194 200 206 207 207 208 210 214 217 217 219 221 223 225 224
8 4 0 2 359 355 346 340 341 337 342 339 334 330 324 317 310 295 252 237 235 172 191 194 191 185 184 194 195 203 205 209 211 211 211 212 216 220 223 225 226 225 225 228
11 6 2 0 357 352 352 353 345 338 337 335 337 335 330 324 319 310 294 237 183 164 196 202 189 185 201 207 210 212 211 213 216 215 214 215 219 223 227 229 229 230 228 229
10 3 357 352 350 351 353 355 351 349 347 343 341 338 331 320 310 303 301 308 142 194 216 213 204 211 224 219 220 221 220 220 219 218 218 220 224 227 231 233 234 234 233 235
4 359 352 343 338 343 349 357 352 344 343 338 332 330 325 320 320 320 320 309 287 265 253 220 215 225 228 229 225 225 225 224 223 221 222 225 228 230 232 232 233 235 238 241
344 342 346 347 343 346 343 340 337 337 335 331 327 328 323 322 315 321 322 311 298 278 260 228 226 233 237 236 229 229 231 232 233 232 229 230 230 231 232 232 233 236 237 239
338 337 335 327 329 325 322 322 317 318 318 325 332 338 338 332 324 320 311 301 303 295 272 247 230 232 243 247 242 244 241 236 234 231 232 233 232 230 232 233 238 238 240 239
315 312 310 309 316 318 319 319 319 321 329 335 334 336 328 320 318 322 321 314 310 304 287 269 253 248 249 248 250 253 253 250 242 237 234 233 232 228 227 230 230 234 238 241
Height
1494 1492 1492 1494 1494 1494 1497 1498 1502 1499 1495 1490 1488 1490 1492 1496 1501 1505 1510 1514 1518 1522 1526 1530 1534 1538 1541 1544 1547 1549 1552 1554 1556 1558 1560 1561 1562 1564 1565 1565 1566 1566 1566 1567
1494 1489 1488 1491 1489 1488 1490 1490 1492 1491 1490 1483 1485 1488 1491 1495 1498 1502 1506 1511 1515 1519 1523 1527 1530 1534 1537 1540 1544 1546 1549 1551 1554 1556 1557 1559 1560 1562 1563 1564 1564 1565 1565 1566
1498 1489 1489 1495 1486 1484 1485 1483 1486 1489 1485 1481 1483 1486 1489 1492 1495 1498 1502 1507 1511 1516 1519 1523 1527 1530 1533 1537 1540 1544 1546 1549 1551 1553 1555 1557 1558 1560 1561 1562 1563 1563 1564 1564
1496 1497 1507 1488 1474 1476 1479 1479 1478 1478 1477 1479 1481 1484 1486 1489 1493 1496 1500 1504 1508 1512 1516 1520 1524 1528 1531 1534 1537 1540 1543 1545 1548 1550 1552 1554 1556 1558 1559 1560 1561 1562 1562 1563
1496 1501 1493 1480 1473 1474 1479 1480 1475 1475 1475 1477 1479 1482 1485 1487 1490 1493 1497 1501 1504 1508 1513 1517 1521 1524 1527 1531 1534 1537 1540 1542 1545 1547 1549 1552 1553 1555 1556 1558 1559 1559 1560 1561
1493 1501 1502 1484 1472 1471 1476 1483 1474 1473 1474 1475 1477 1483 1485 1485 1487 1491 1494 1498 1502 1506 1510 1513 1517 1521 1524 1527 1530 1533 1536 1539 1542 1544 1547 1549 1551 1552 1554 1555 1556 1557 1558 1559
1491 1494 1488 1475 1472 1472 1487 1486 1475 1473 1474 1475 1476 1480 1483 1484 1486 1489 1492 1496 1499 1503 1507 1510 1514 1517 1520 1524 1527 1530 1534 1537 1539 1542 1544 1546 1548 1550 1551 1553 1554 1555 1556 1556
1484 1491 1491 1473 1473 1476 1479 1476 1476 1476 1477 1477 1478 1480 1482 1483 1485 1488 1490 1493 1497 1500 1504 1507 1511 1514 1517 1520 1524 1527 1531 1534 1536 1539 1541 1543 1545 1547 1548 1550 1551 1552 1553 1553
1475 1479 1474 1473 1474 1476 1476 1477 1477 1478 1479 1479 1480 1481 1483 1484 1485 1487 1489 1492 1495 1498 1501 1505 1508 1511 1514 1518 1521 1524 1527 1530 1533 1535 1538 1540 1542 1544 1545 1546 1547 1548 1549 1550
1468 1469 1471 1473 1474 1475 1476 1477 1478 1478 1479 1480 1481 1482 1482 1484 1485 1487 1489 1491 1493 1496 1499 1502 1505 1508 1512 1515 1518 1521 1524 1526 1529 1532 1534 1536 1538 1540 1541 1543 1544 1545 1546 1547
1467 1468 1470 1472 1474 1475 1476 1477 1478 1478 1479 1479 1480 1481 1482 1483 1484 1486 1488 1490 1492 1494 1496 1499 1503 1506 1509 1512 1514 1517 1520 1523 1525 1528 1530 1532 1534 1536 1537 1539 1540 1541 1542 1543
1471 1470 1471 1473 1473 1474 1475 1476 1477 1477 1478 1478 1479 1479 1481 1482 1483 1484 1486 1488 1490 1492 1494 1497 1500 1503 1505 1508 1510 1513 1516 1518 1521 1523 1526 1528 1530 1532 1533 1535 1536 1537 1538 1539
1469 1470 1471 1473 1474 1475 1475 1476 1477 1477 1477 1477 1478 1479 1479 1480 1482 1483 1484 1486 1488 1489 1492 1494 1497 1499 1501 1504 1506 1509 1511 1514 1516 1519 1521 1523 1525 1526 1528 1530 1531 1532 1533 1534
1468 1469 1471 1473 1474 1474 1475 1475 1476 1476 1476 1476 1477 1477 1478 1479 1480 1481 1482 1484 1486 1487 1489 1491 1493 1495 1497 1500 1502 1505 1507 1510 1512 1514 1516 1518 1519 1521 1523 1524 1525 1526 1528 1528
1468 1469 1470 1472 1472 1473 1474 1474 1474 1474 1475 1475 1475 1476 1476 1477 1478 1479 1481 1482 1483 1485 1486 1488 1489 1491 1493 1495 1498 1500 1503 1505 1507 1509 1511 1513 1515 1516 1518 1519 1520 1520 1521 1522
1466 1467 1468 1470 1471 1471 1472 1472 1473 1473 1473 1473 1474 1474 1474 1475 1476 1477 1478 1479 1480 1481 1483 1484 1485 1487 1489 1491 1493 1496 1498 1500 1502 1504 1506 1507 1509 1511 1512 1513 1514 1514 1515 1516
1465 1466 1467 1468 1469 1469 1470 1471 1471 1471 1471 1471 1471 1472 1472 1473 1473 1474 1475 1476 1477 1479 1480 1481 1482 1483 1485 1487 1489 1491 1493 1494 1496 1498 1500 1502 1503 1505 1506 1507 1508 1508 1509 1509
1463 1464 1465 1466 1467 1467 1468 1468 1469 1469 1469 1469 1469 1469 1470 1470 1471 1472 1473 1474 1474 1475 1476 1477 1479 1480 1481 1483 1484 1486 1487 1489 1491 1492 1494 1496 1497 1498 1500 1501 1502 1502 1503 1504
1461 1462 1463 1464 1464 1465 1465 1466 1466 1466 1467 1467 1467 1467 1467 1468 1468 1469 1470 1470 1471 1471 1472 1474 1475 1476 1477 1478 1480 1481 1483 1484 1486 1487 1488 1490 1491 1492 1493 1494 1495 1496 1497 1497
1459 1460 1461 1461 1462 1463 1463 1463 1464 1464 1464 1464 1464 1464 1465 1465 1466 1466 1466 1466 1467 1468 1469 1470 1471 1471 1472 1473 1475 1476 1477 1479 1480 1481 1483 1484 1485 1486 1487 1488 1489 1489 1490 1490
1458 1459 1459 1459 1460 1461 1461 1461 1461 1461 1462 1462 1462 1462 1462 1462 1463 1463 1463 1463 1464 1465 1465 1466 1466 1467 1468 1469 1470 1471 1472 1473 1474 1475 1476 1477 1478 1479 1480 1481 1482 1483 1483 1483
1457 1458 1458 1458 1459 1459 1459 1459 1459 1459 1459 1459 1459 1459 1460 1459 1460 1460 1459 1460 1460 1460 1461 1461 1462 1462 1463 1464 1464 1465 1466 1467 1468 1469 1470 1471 1472 1473 1474 1474 1475 1476 1476 1476
1456 1456 1457 1457 1457 1457 1457 1457 1457 1457 1457 1457 1457 1457 1457 1456 1456 1456 1456 1456 1456 1456 1456 1456 1457 1458 1458 1459 1459 1460 1461 1462 1463 1463 1464 1465 1466 1466 1467 1468 1468 1469 1469 1469
1455 1455 1455 1456 1456 1456 1456 1455 1455 1455 1454 1454 1454 1454 1454 1453 1453 1453 1452 1452 1452 1452 1452 1452 1452 1453 1453 1454 1454 1455 1455 1456 1457 1458 1458 1459 1459 1460 1460 1461 1461 1461 1462 1462
1453 1454 1454 1454 1454 1454 1454 1453 1453 1452 1452 1452 1451 1451 1451 1451 1450 1449 1448 1448 1448 1447 1447 1447 1447 1448 1448 1448 1449 1449 1450 1450 1451 1451 1452 1452 1453 1453 1453 1454 1454 1454 1454 1454
1452 1452 1452 1452 1452 1452 1451 1451 1451 1450 1449 1449 1448 1448 1448 1447 1446 1445 1445 1444 1444 1443 1443 1443 1443 1443 1443 1443 1443 1444 1444 1445 1445 1445 1446 1446 1446 1447 1447 1447 1447 1447 1447 1447
1450 1450 1450 1450 1450 1450 1449 1449 1448 1448 1447 1446 1445 1445 1444 1443 1443 1442 1441 1441 1440 1439 1439 1438 1438 1438 1438 1438 1438 1438 1439 1439 1439 1439 1439 1440 1440 1440 1440 1440 1440 1439 1439 1439